This is the latest recevied weather packets stored in our database for station/object SQ7KHZ-10. If no packets are shown the sender has not sent any weather packets the latest 10 day(s).
| Time | Temp. | Humidity | Pressure | Rain* | Wind** | Luminosity | Snow |
|---|---|---|---|---|---|---|---|
| 1777585200 | 7.78° C | 60% | 1027.1 hPa | 0 mm | - | - | - |
| 1777583999 | 7.22° C | 66% | 1027.2 hPa | 0 mm | - | - | - |
| 1777579177 | 8.33° C | 67% | 1027.7 hPa | 0 mm | - | - | - |
| 1777577963 | 8.33° C | 69% | 1027.6 hPa | 0 mm | - | - | - |
| 1777576751 | 8.89° C | 60% | 1027.6 hPa | 0 mm | - | - | - |
| 1777573128 | 8.89° C | 55% | 1027.5 hPa | 0 mm | - | - | - |
| 1777571916 | 9.44° C | 53% | 1027.4 hPa | 0 mm | - | - | - |
| 1777570716 | 10° C | 54% | 1027.3 hPa | 0 mm | - | - | - |
| 1777567087 | 11.67° C | 41% | 1027.1 hPa | 0 mm | - | - | - |
| 1777562262 | 11.67° C | 36% | 1027.5 hPa | 0 mm | - | - | - |
| 1777558649 | 13.89° C | 34% | 1027.8 hPa | 0 mm | - | - | - |
| 1777557433 | 12.78° C | 32% | 1028 hPa | 0 mm | - | - | - |
| 1777556210 | 12.78° C | 30% | 1028.1 hPa | 0 mm | - | - | - |
| 1777552589 | 11.67° C | 33% | 1028.6 hPa | 0 mm | - | - | - |
| 1777550170 | 12.22° C | 30% | 1028.9 hPa | 0 mm | - | - | - |
| 1777548968 | 12.78° C | 31% | 1029.2 hPa | 0 mm | - | - | - |
| 1777546556 | 11.67° C | 38% | 1029.5 hPa | 0 mm | - | - | - |
| 1777545356 | 11.11° C | 34% | 1029.6 hPa | 0 mm | - | - | - |
| 1777544155 | 11.11° C | 36% | 1029.7 hPa | 0 mm | - | - | - |
| 1777542944 | 11.11° C | 36% | 1029.9 hPa | 0 mm | - | - | - |
| 1777541734 | 10.56° C | 42% | 1030 hPa | 0 mm | - | - | - |
| 1777540495 | 10° C | 42% | 1030 hPa | 0 mm | - | - | - |
| 1777539294 | 9.44° C | 42% | 1030.2 hPa | 0 mm | - | - | - |
| 1777538084 | 9.44° C | 43% | 1030.3 hPa | 0 mm | - | - | - |
| 1777536882 | 8.89° C | 45% | 1030.3 hPa | 0 mm | - | - | - |
* Rain latest hour (hover to see other rain measurements)
** Current wind speed in m/s (hover to see current wind gust speed)